• In Belarus
  • List of Countries
  • For 7 days
  • Water Temperature
  • Weather Map
  • Weather Widgets
  • user-avatar
    Login

    Hourly Weather Baranovichi

    Today, 9 April, Thursday

    Time Temperature Precipitation Wind Pressure Humidity
    00:00 +7°C° 0 mm 1 mps 752 mmHg 68%
    01:00 +7°C° 0 mm 1 mps 751 mmHg 69%
    02:00 +6°C° 0 mm 2 mps 751 mmHg 69%
    03:00 +6°C° 0 mm 2 mps 750 mmHg 71%
    04:00 +5°C° 0 mm 2 mps 750 mmHg 72%
    05:00 +4°C° 0 mm 3 mps 749 mmHg 74%
    06:00 +5°C° 0 mm 3 mps 749 mmHg 71%
    07:00 +7°C° 0 mm 4 mps 748 mmHg 68%
    08:00 +8°C° 0 mm 4 mps 748 mmHg 65%
    09:00 +11°C° 0 mm 4 mps 747 mmHg 60%
    10:00 +13°C° 0 mm 4 mps 747 mmHg 54%
    11:00 +15°C° 0 mm 5 mps 746 mmHg 49%
    12:00 +16°C° 0 mm 5 mps 746 mmHg 45%
    13:00 +17°C° 0 mm 6 mps 745 mmHg 42%
    14:00 +19°C° 0 mm 6 mps 744 mmHg 38%
    15:00 +19°C° 0 mm 5 mps 744 mmHg 42%
    16:00 +17°C° 0 mm 5 mps 744 mmHg 47%
    17:00 +17°C° 0 mm 4 mps 743 mmHg 52%
    18:00 +15°C° 0.1 mm 4 mps 744 mmHg 59%
    19:00 +13°C° 0.1 mm 4 mps 744 mmHg 66%
    20:00 +10°C° 0.1 mm 5 mps 744 mmHg 73%
    21:00 +9°C° 0 mm 5 mps 744 mmHg 76%
    22:00 +7°C° 0 mm 5 mps 745 mmHg 80%
    23:00 +6°C° 0 mm 5 mps 745 mmHg 83%

    Tomorrow, 10 April, Friday

    Time Temperature Precipitation Wind Pressure Humidity
    00:00 +5°C° 0 mm 5 mps 746 mmHg 77%
    01:00 +5°C° 0 mm 5 mps 746 mmHg 70%
    02:00 +3°C° 0 mm 5 mps 747 mmHg 63%
    03:00 +3°C° 0 mm 4 mps 747 mmHg 65%
    04:00 +1°C° 0 mm 4 mps 747 mmHg 67%
    05:00 +1°C° 0 mm 3 mps 748 mmHg 69%
    06:00 +1°C° 0 mm 4 mps 748 mmHg 65%
    07:00 +2°C° 0 mm 5 mps 749 mmHg 61%
    08:00 +2°C° 0 mm 6 mps 749 mmHg 57%
    09:00 +4°C° 0 mm 6 mps 749 mmHg 53%
    10:00 +5°C° 0 mm 6 mps 749 mmHg 48%
    11:00 +7°C° 0 mm 6 mps 750 mmHg 44%
    12:00 +7°C° 0 mm 6 mps 750 mmHg 43%
    13:00 +8°C° 0 mm 5 mps 750 mmHg 43%
    14:00 +9°C° 0 mm 5 mps 750 mmHg 43%
    15:00 +9°C° 0 mm 5 mps 749 mmHg 43%
    16:00 +8°C° 0 mm 5 mps 749 mmHg 42%
    17:00 +8°C° 0 mm 5 mps 749 mmHg 42%
    18:00 +7°C° 0 mm 4 mps 749 mmHg 48%
    19:00 +5°C° 0 mm 3 mps 749 mmHg 53%
    20:00 +5°C° 0 mm 2 mps 749 mmHg 58%
    21:00 +5°C° 0 mm 2 mps 749 mmHg 61%
    22:00 +3°C° 0 mm 3 mps 749 mmHg 64%
    23:00 +3°C° 0 mm 3 mps 749 mmHg 67%

    Day after tomorrow, 11 April, Saturday

    Time Temperature Precipitation Wind Pressure Humidity
    00:00 +2°C° 0 mm 3 mps 750 mmHg 70%
    01:00 +1°C° 0 mm 3 mps 750 mmHg 73%
    02:00 +1°C° 0 mm 3 mps 750 mmHg 77%
    03:00 0°C° 0 mm 3 mps 750 mmHg 75%
    04:00 0°C° 0 mm 3 mps 750 mmHg 74%
    05:00 -1°C° 0 mm 3 mps 751 mmHg 73%
    06:00 0°C° 0 mm 3 mps 751 mmHg 66%
    07:00 +1°C° 0 mm 3 mps 751 mmHg 59%
    08:00 +2°C° 0 mm 3 mps 752 mmHg 51%
    09:00 +3°C° 0 mm 3 mps 752 mmHg 47%
    10:00 +5°C° 0 mm 4 mps 752 mmHg 43%
    11:00 +6°C° 0 mm 4 mps 753 mmHg 39%
    12:00 +7°C° 0 mm 4 mps 753 mmHg 38%
    13:00 +7°C° 0 mm 4 mps 753 mmHg 38%
    14:00 +8°C° 0 mm 5 mps 753 mmHg 38%
    15:00 +8°C° 0 mm 5 mps 753 mmHg 39%
    16:00 +8°C° 0 mm 4 mps 753 mmHg 41%
    17:00 +7°C° 0 mm 4 mps 752 mmHg 43%
    18:00 +7°C° 0 mm 3 mps 753 mmHg 50%
    19:00 +5°C° 0 mm 2 mps 753 mmHg 57%
    20:00 +4°C° 0 mm 2 mps 753 mmHg 63%
    21:00 +4°C° 0 mm 1 mps 753 mmHg 65%
    22:00 +4°C° 0 mm 1 mps 754 mmHg 66%
    23:00 +2°C° 0 mm 0 mps 754 mmHg 67%

    12 April, Sunday

    Time Temperature Precipitation Wind Pressure Humidity
    00:00 +3°C° 0 mm 1 mps 754 mmHg 68%
    01:00 +3°C° 0 mm 1 mps 754 mmHg 68%
    02:00 +3°C° 0 mm 1 mps 754 mmHg 69%
    03:00 +1°C° 0 mm 2 mps 753 mmHg 71%
    04:00 +1°C° 0 mm 2 mps 753 mmHg 73%
    05:00 +1°C° 0 mm 2 mps 753 mmHg 75%
    06:00 +1°C° 0 mm 3 mps 753 mmHg 69%
    07:00 +3°C° 0 mm 3 mps 753 mmHg 63%
    08:00 +4°C° 0 mm 3 mps 753 mmHg 57%
    09:00 +5°C° 0 mm 4 mps 752 mmHg 52%
    10:00 +7°C° 0 mm 4 mps 752 mmHg 46%
    11:00 +8°C° 0 mm 4 mps 751 mmHg 41%
    12:00 +10°C° 0 mm 4 mps 751 mmHg 40%
    13:00 +9°C° 0 mm 5 mps 751 mmHg 40%
    14:00 +10°C° 0 mm 5 mps 750 mmHg 39%
    15:00 +10°C° 0 mm 5 mps 749 mmHg 41%
    16:00 +10°C° 0 mm 4 mps 749 mmHg 43%
    17:00 +10°C° 0 mm 4 mps 748 mmHg 45%
    18:00 +8°C° 0 mm 4 mps 748 mmHg 49%
    19:00 +7°C° 0 mm 4 mps 747 mmHg 53%
    20:00 +7°C° 0 mm 3 mps 747 mmHg 57%
    21:00 +5°C° 0 mm 3 mps 746 mmHg 58%
    22:00 +5°C° 0 mm 3 mps 746 mmHg 59%
    23:00 +4°C° 0 mm 3 mps 746 mmHg 60%

    13 April, Monday

    Time Temperature Precipitation Wind Pressure Humidity
    00:00 +4°C° 0 mm 3 mps 745 mmHg 62%
    01:00 +4°C° 0 mm 3 mps 745 mmHg 65%
    02:00 +3°C° 0 mm 3 mps 744 mmHg 67%
    03:00 +3°C° 0 mm 3 mps 743 mmHg 72%
    04:00 +3°C° 0 mm 3 mps 743 mmHg 77%
    05:00 +3°C° 0 mm 3 mps 742 mmHg 82%
    06:00 +4°C° 0 mm 3 mps 742 mmHg 78%
    07:00 +6°C° 0 mm 4 mps 742 mmHg 75%
    08:00 +8°C° 0 mm 4 mps 741 mmHg 72%
    09:00 +10°C° 0 mm 5 mps 741 mmHg 66%
    10:00 +13°C° 0 mm 5 mps 740 mmHg 61%
    11:00 +15°C° 0 mm 6 mps 739 mmHg 56%
    12:00 +16°C° 0.1 mm 6 mps 739 mmHg 54%
    13:00 +16°C° 0.1 mm 7 mps 738 mmHg 52%
    14:00 +17°C° 0.1 mm 7 mps 737 mmHg 50%
    15:00 +17°C° 0.4 mm 7 mps 736 mmHg 53%
    16:00 +16°C° 0.4 mm 7 mps 735 mmHg 57%
    17:00 +15°C° 0.4 mm 7 mps 735 mmHg 60%
    18:00 +13°C° 0.7 mm 6 mps 735 mmHg 69%
    19:00 +10°C° 0.7 mm 6 mps 734 mmHg 78%
    20:00 +8°C° 0.7 mm 6 mps 734 mmHg 86%
    21:00 +5°C° 1.4 mm 7 mps 735 mmHg 88%
    22:00 +2°C° 1.4 mm 7 mps 735 mmHg 89%
    23:00 -1°C° 1.4 mm 8 mps 736 mmHg 91%

    14 April, Tuesday

    Time Temperature Precipitation Wind Pressure Humidity
    00:00 -3°C° 0.1 mm 9 mps 737 mmHg 88%
    01:00 -4°C° 0.1 mm 9 mps 738 mmHg 86%
    02:00 -4°C° 0.1 mm 9 mps 738 mmHg 83%
    03:00 -5°C° 0 mm 9 mps 739 mmHg 80%
    04:00 -6°C° 0 mm 8 mps 740 mmHg 78%
    05:00 -6°C° 0 mm 8 mps 741 mmHg 75%
    06:00 -6°C° 0 mm 8 mps 742 mmHg 71%
    07:00 -6°C° 0 mm 8 mps 743 mmHg 66%
    08:00 -5°C° 0 mm 9 mps 743 mmHg 62%
    09:00 -4°C° 0 mm 9 mps 744 mmHg 56%
    10:00 -3°C° 0 mm 9 mps 745 mmHg 51%
    11:00 -1°C° 0 mm 9 mps 745 mmHg 45%
    12:00 0°C° 0 mm 9 mps 745 mmHg 43%
    13:00 +1°C° 0 mm 9 mps 745 mmHg 40%
    14:00 +1°C° 0 mm 8 mps 746 mmHg 38%
    15:00 +1°C° 0 mm 8 mps 746 mmHg 39%
    16:00 +1°C° 0 mm 8 mps 746 mmHg 41%
    17:00 +2°C° 0 mm 7 mps 746 mmHg 42%
    18:00 +1°C° 0 mm 6 mps 746 mmHg 48%
    19:00 0°C° 0 mm 5 mps 747 mmHg 55%
    20:00 -1°C° 0 mm 4 mps 747 mmHg 62%
    21:00 -1°C° 0 mm 4 mps 748 mmHg 64%
    22:00 -2°C° 0 mm 4 mps 748 mmHg 67%
    23:00 -2°C° 0 mm 4 mps 748 mmHg 70%
    Show more